This is the latest recevied weather packets stored in our database for station/object EA3GKP-10. If no packets are shown the sender has not sent any weather packets the latest 10 day(s).
| Time | Temp. | Humidity | Pressure | Rain* | Wind** | Luminosity | Snow |
|---|---|---|---|---|---|---|---|
| 1777938919 | 18.33° C | - | - | 0 mm | 0.45 m/s, 49° | - | - |
| 1777938308 | 18.33° C | - | - | 0 mm | 0.89 m/s, 94° | - | - |
| 1777938002 | 18.33° C | - | - | 0 mm | 0 m/s | - | - |
| 1777937698 | 17.78° C | - | - | 0 mm | 1.34 m/s, 118° | - | - |
| 1777937392 | 17.78° C | - | - | 0 mm | 0.45 m/s, 90° | - | - |
| 1777937088 | 18.33° C | - | - | 0 mm | 1.34 m/s, 44° | - | - |
| 1777936781 | 17.78° C | - | - | 0 mm | 1.79 m/s, 113° | - | - |
| 1777936478 | 17.78° C | - | - | 0 mm | 0.89 m/s, 38° | - | - |
| 1777936171 | 18.33° C | - | - | 0 mm | 0.89 m/s, 115° | - | - |
| 1777935868 | 18.33° C | - | - | 0 mm | 0.45 m/s, 134° | - | - |
| 1777935561 | 18.33° C | - | - | 0 mm | 0.89 m/s, 89° | - | - |
| 1777935256 | 18.89° C | - | - | 0 mm | 0.89 m/s, 80° | - | - |
| 1777934948 | 18.89° C | - | - | 0 mm | 1.79 m/s, 129° | - | - |
| 1777934642 | 18.89° C | - | - | 0 mm | 1.34 m/s, 31° | - | - |
| 1777934336 | 18.33° C | - | - | 0 mm | 0.45 m/s, 98° | - | - |
| 1777934026 | 18.89° C | - | - | 0 mm | 0 m/s | - | - |
| 1777933416 | 18.33° C | - | - | 0 mm | 0 m/s | - | - |
| 1777933110 | 18.33° C | - | - | 0 mm | 0 m/s | - | - |
| 1777932805 | 18.89° C | - | - | 0 mm | 0 m/s | - | - |
| 1777932500 | 18.89° C | - | - | 0 mm | 0.89 m/s, 49° | - | - |
| 1777931281 | 18.89° C | - | - | 0 mm | 0.89 m/s, 77° | - | - |
| 1777930973 | 18.89° C | - | - | 0 mm | 0.89 m/s, 156° | - | - |
| 1777930669 | 18.89° C | - | - | 0 mm | 0 m/s | - | - |
| 1777930364 | 19.44° C | - | - | 0 mm | 0 m/s | - | - |
| 1777930059 | 19.44° C | - | - | 0 mm | 0.89 m/s, 118° | - | - |
* Rain latest hour (hover to see other rain measurements)
** Current wind speed in m/s (hover to see current wind gust speed)